www.pogodaiklimat.ru

Погода и климат >> Архив погоды >> Индия >> Purnea


ПОГОДА в Purnea

  • Прогноз погоды в Purnea
  • Монитор погоды в Purnea
  • Климат города

АРХИВ ПОГОДЫ в Purnea

Время (UTC), дата Ветер
(напр.,м/с)
 
Видим.   Явления Облачность Т
(С)
Тd
(С)
f
(%)
Тe
(С)
Тes
(С)
Комфортность P
(гПа)
Po
(гПа)
Тmin
(С)
Tmax
(С)
R
(мм)
R24
(мм)
S
(см)
03 11.10 СВ 1 4000 м 9/5 600 м
[Sc Ac trans]
+26.0 +23.7 87 +35 +37 очень
душно
1012.0 1012.0 +23.6
06 11.10 ЮВ 2 4000 м слабый дождь 9/8 450 м
[St Ac trans]
+25.8 +23.5 87 +35 +37 очень
душно
1012.6 1013.0 0.0
09 11.10 В 2 4000 м слабый дождь 9/5 600 м
[Sc Ac trans]
+27.8 +23.1 76 +37 +40 очень
душно
1008.3 1008.0 0.8
12 11.10 ЮВ 2 2000 м слабый дождь 9/8 450 м
[St Ac trans]
+23.4 +23.1 98 +33 +33 очень
душно
1010.2 1010.0 +28.6 4
00 12.10 В 2 2000 м слабый дождь 10/8 450 м
[Frnb As op]
+22.4 +22.4 100 +30 +30 очень
душно
1011.8 1012.0 20
03 12.10 ЮВ 1 2000 м в посл. час дождь 9/6 450 м
[St Ac trans]
+22.4 +22.4 100 +30 +32 очень
душно
1013.5 1014.0 +21.6 27
06 12.10 СВ 2 4000 м в посл. час дождь 9/5 600 м
[Sc Ac trans]
+26.0 +23.1 84 +35 +39 очень
душно
1012.7 1013.0
09 12.10 В 1 4000 м 9/5 600 м
[Sc Ac trans]
+26.8 +23.3 81 +36 +38 очень
душно
1009.1 1009.0
12 12.10 СВ 1 2000 м мгла 9/6 450 м
[St Ac trans]
+24.8 +23.6 93 +34 +34 очень
душно
1010.9 1011.0 +27.3
00 13.10 штиль 0 2000 м мгла 4/4 600 м
[Sc]
+22.6 +22.3 98 +30 +30 очень
душно
1011.1 1011.0
03 13.10 СВ 1 4000 м 6/5 600 м
[Sc Ac trans]
+25.4 +22.7 85 +33 +37 очень
душно
1012.6 1013.0 +22.3
06 13.10 штиль 0 4000 м 6/5 600 м
[Sc Ac trans]
+27.4 +22.7 76 +36 +45 очень
душно
1012.3 1012.0
09 13.10 СВ 1 4000 м 5/5 600 м
[Sc]
+31.2 +22.1 58 +40 +44 очень
душно
1008.8 1009.0
12 13.10 штиль 0 4000 м 4/4 600 м
[Sc]
+28.2 +23.9 78 +39 +39 очень
душно
1008.9 1009.0 +32.0
00 14.10 штиль 0 2000 м мгла 3/3 600 м
[Sc]
+23.0 +21.8 93 +31 +31 очень
душно
1010.1 1010.0
03 14.10 З 1 4000 м 5/1 600 м
[Sc Ac trans]
+25.6 +23.6 89 +35 +40 очень
душно
1011.8 1012.0 +22.1
06 14.10 З 1 4000 м 4/1 600 м
[Sc Ac trans]
+29.0 +23.2 71 +39 +51 опасность
солнечного
удара
1012.2 1012.0
09 14.10 штиль 0 4000 м 3/3 600 м
[Sc]
+29.6 +23.5 70 +40 +47 очень
душно
1009.0 1009.0
12 14.10 штиль 0 2000 м 6/4 600 м
[Sc Ac trans]
+28.4 +24.0 77 +39 +39 очень
душно
1009.0 1009.0 +31.8
00 15.10 штиль 0 2000 м мгла ясно +20.8 +20.5 98 +25 +25 комфорт 1011.3 1011.0
03 15.10 штиль 0 2000 м дымка ясно +24.0 +21.0 83 +30 +38 очень
душно
1013.8 1014.0 +20.1
06 15.10 СЗ 1 4000 м ясно +29.4 +17.4 48 +33 +50 душно 1013.4 1013.0
09 15.10 штиль 0 4000 м ясно +30.2 +18.1 48 +35 +45 очень
душно
1010.5 1011.0
12 15.10 штиль 0 4000 м ясно +26.8 +20.7 69 +33 +33 очень
душно
1011.0 1011.0 +31.6
00 16.10 штиль 0 2000 м мгла 3/3 600 м
[Sc]
+21.4 +20.2 93 +27 +27 душно 1011.1 1011.0
03 16.10 штиль 0 4000 м ясно +24.2 +22.8 92 +32 +40 очень
душно
1014.7 1015.0 +19.7
06 16.10 штиль 0 4000 м ясно +28.6 +21.1 64 +36 +55 опасность
солнечного
удара
1013.8 1014.0
09 16.10 штиль 0 4000 м 4/4 600 м
[Sc]
+30.4 +20.8 57 +38 +44 очень
душно
1010.9 1011.0
12 16.10 штиль 0 2000 м мгла ясно +27.2 +22.2 74 +35 +35 очень
душно
1010.9 1011.0 +32.4
00 17.10 штиль 0 2000 м дымка ясно +20.8 +17.9 83 +24 +24 комфорт 1011.6 1012.0
03 17.10 штиль 0 4000 м ясно +24.4 +21.7 85 +31 +39 очень
душно
1013.5 1014.0 +20.3
06 17.10 штиль 0 4000 м ясно +30.2 +21.8 61 +39 +58 опасность
солнечного
удара
1012.0 1012.0
09 17.10 штиль 0 4000 м 3/3 600 м
[Sc]
+31.6 +20.2 51 +38 +45 очень
душно
1008.3 1008.0
12 17.10 штиль 0 4000 м 3/3 600 м
[Sc]
+28.2 +22.3 70 +37 +37 очень
душно
1008.1 1008.0 +32.2

 

Местоположение метеостанции Purnea (Bihar, Индия): широта 25.27 долгота 87.47 высота над уровнем моря 38 м.

В архиве по умолчанию представлена погода в Purnea за последнюю неделю. Архивные данные за месяц целиком и за предыдущие месяцы, начиная с января 2011 года, Вы можете получить, выбрав интересующий диапазон дат из раскрывающегося списка и нажав кнопку "Ввод!".


*Определитесь, кто Вы:
робот инопланетянин человек

Внимание! Время в таблицах - всемирное. Для получения местного времени необходимо прибавить поправку, которая в Purnea равна 5.5 ч.

Смотрите также архив погоды в соседних городах и на ближайших метеорологических станциях:

Погода в Bhagalpur (Bihar, Индия) (53 км)
Погода в Malda (West Bengal, Индия) (72 км)
Погода в Badalgachhi (Бангладеш) (115 км)
Погода в Dinajpur (Бангладеш) (129 км)
Погода в Balurghat (West Bengal, Индия) (132 км)
Погода в Biratnagar (Непал) (136 км)
Погода в Dimla (Бангладеш) (142 км)
Погода в Baharampur (West Bengal, Индия) (150 км)
Погода в Saidpur (Бангладеш) (155 км)
Погода в Rajshahi (Бангладеш) (159 км)

Пояснения к столбцам:

Ветер - указаны скорость ветра в м/с - средняя за 10 мин, порывы в срок и между сроками (в фигурных скобках) и направление, откуда дует ветер: С - северный, СВ - северо-восточный, В - восточный, ЮВ - юго-восточный, Ю - южный, ЮЗ - юго-западный, З - западный, СЗ - северо-западный.
Видимость - горизонтальная дальность видимости в метрах или километрах. При видимости от 1 до 10 км при отсутствии осадков обычно наблюдается дымка, при ухудшении видимости до 1 км и менее - туман. В сухую погоду видимость может ухудшаться дымом, пылью или мглою.
Явления - указаны атмосферные явления, наблюдавшиеся в срок или в последний час перед сроком; фигурными скобками обозначены явления, наблюдавшиеся между сроками (за 1-3 часа до срока); квадратными скобками обозначены град или гололедные отложения с указанием их диаметра в мм.
Облачность - указаны через наклонную черту общая и нижняя облачность в баллах и высота нижней границы облаков в метрах; квадратными скобками обозначены формы облаков: Ci - перистые, Cs - перисто-слоистые, Cc - перисто-кучевые, Ac - высококучевые, As - высокослоистые, Sc - слоисто-кучевые, Ns - слоисто-дождевые, Cu - кучевые, Cb - кучево-дождевые. Подробнее классификацию облаков см. в Атласе облаков (PDF).
T - Температура воздуха - температура, измеренная на высоте 2 м над землей.
Td - Температура точки росы - температура, при понижении до которой содержащийся в воздухе водяной пар достигнет насыщения.
f - Относительная влажность воздуха - влажноcть воздуха, измеренная на высоте 2 м над землей.
Te - Эффективная температура - температура, которую ощущает одетый по сезону человек в тени. Характеристика душности погоды. При расчете учитывается влияние влажности воздуха и скорости ветра на теплоощущения человека.
Tes - Эффективная температура на солнце - температура, которую ощущает человек, с поправкой на солнечный нагрев. Характеристика знойности погоды. Зависит от высоты солнца над горизонтом, облачности и скорости ветра. Ночью, в пасмурную погоду, а также при ветре 12 м/с и более поправка равна нулю.
P - Атмосферное давление - приведенное к уровню моря атмосферное давление.
Po - Атмосферное давление - измеренное на уровне метеостанции атмосферное давление.
Tmin - Минимальная температура - минимум температуры воздуха на высоте 2 м над землей.
Tmax - Максимальная температура - максимум температуры воздуха на высоте 2 м над землей.
R - Количество осадков - Количество выпавших осадков за период времени, мм. При наведении курсора мыши на число - период времени, за который выпало указанное количество осадков.
R24 - Количество осадков - Количество выпавших осадков за 24 часа, мм.
S - Снежный покров - Высота снежного покрова, см. При наведении курсора мыши на число - состояние снежного покрова и степень покрытия местности в баллах.